Year,Month,Day,Hour,Minute,Value (Times are PST for temperature in C)
2014,04,28,00,00,4.20
2014,04,28,00,01,4.20
2014,04,28,00,02,4.20
2014,04,28,00,03,4.10
2014,04,28,00,04,4.10
2014,04,28,00,05,4.10
2014,04,28,00,06,4.10
2014,04,28,00,07,4.10
2014,04,28,00,08,4.10
2014,04,28,00,09,4.10
2014,04,28,00,10,4.10
2014,04,28,00,11,4.10
2014,04,28,00,12,4.10
2014,04,28,00,13,4.00
2014,04,28,00,14,4.00
2014,04,28,00,15,4.00
2014,04,28,00,16,4.00
2014,04,28,00,17,4.00
2014,04,28,00,18,3.90
2014,04,28,00,19,3.90
2014,04,28,00,20,3.90
2014,04,28,00,21,3.90
2014,04,28,00,22,3.90
2014,04,28,00,23,3.90
2014,04,28,00,24,3.90
2014,04,28,00,25,3.80
2014,04,28,00,26,3.80
2014,04,28,00,27,3.80
2014,04,28,00,28,3.80
2014,04,28,00,29,3.80
2014,04,28,00,30,3.80
2014,04,28,00,31,3.80
2014,04,28,00,32,3.80
2014,04,28,00,33,3.70
2014,04,28,00,34,3.70
2014,04,28,00,35,3.70
2014,04,28,00,36,3.70
2014,04,28,00,37,3.70
2014,04,28,00,38,3.70
2014,04,28,00,39,3.70
2014,04,28,00,40,3.70
2014,04,28,00,41,3.70
2014,04,28,00,42,3.70
2014,04,28,00,43,3.70
2014,04,28,00,44,3.70
2014,04,28,00,45,3.70
2014,04,28,00,46,3.70
2014,04,28,00,47,3.70
2014,04,28,00,48,3.70
2014,04,28,00,49,3.70
2014,04,28,00,50,3.70
2014,04,28,00,51,3.70
2014,04,28,00,52,3.70
2014,04,28,00,53,3.70
2014,04,28,00,54,3.70
2014,04,28,00,55,3.70
2014,04,28,00,56,3.60
2014,04,28,00,57,3.60
2014,04,28,00,58,3.60
2014,04,28,00,59,3.60
2014,04,28,01,00,3.60
2014,04,28,01,01,3.60
2014,04,28,01,02,3.50
2014,04,28,01,03,3.50
2014,04,28,01,04,3.50
2014,04,28,01,05,3.50
2014,04,28,01,06,3.50
2014,04,28,01,07,3.40
2014,04,28,01,08,3.40
2014,04,28,01,09,3.40
2014,04,28,01,10,3.40
2014,04,28,01,11,3.40
2014,04,28,01,12,3.40
2014,04,28,01,13,3.40
2014,04,28,01,14,3.40
2014,04,28,01,15,3.40
2014,04,28,01,16,3.30
2014,04,28,01,17,3.30
2014,04,28,01,18,3.30
2014,04,28,01,19,3.30
2014,04,28,01,20,3.30
2014,04,28,01,21,3.20
2014,04,28,01,22,3.20
2014,04,28,01,23,3.20
2014,04,28,01,24,3.20
2014,04,28,01,25,3.20
2014,04,28,01,26,3.20
2014,04,28,01,27,3.20
2014,04,28,01,28,3.20
2014,04,28,01,29,3.20
2014,04,28,01,30,3.20
2014,04,28,01,31,3.20
2014,04,28,01,32,3.20
2014,04,28,01,33,3.20
2014,04,28,01,34,3.20
2014,04,28,01,35,3.20
2014,04,28,01,36,3.20
2014,04,28,01,37,3.10
2014,04,28,01,38,3.10
2014,04,28,01,39,3.10
2014,04,28,01,40,3.10
2014,04,28,01,41,3.10
2014,04,28,01,42,3.10
2014,04,28,01,43,3.00
2014,04,28,01,44,3.00
2014,04,28,01,45,2.90
2014,04,28,01,46,2.90
2014,04,28,01,47,2.90
2014,04,28,01,48,2.80
2014,04,28,01,49,2.80
2014,04,28,01,50,2.80
2014,04,28,01,51,2.80
2014,04,28,01,52,2.80
2014,04,28,01,53,2.80
2014,04,28,01,54,2.80
2014,04,28,01,55,2.80
2014,04,28,01,56,2.80
2014,04,28,01,57,2.80
2014,04,28,01,58,2.70
2014,04,28,01,59,2.70
2014,04,28,02,00,2.70
2014,04,28,02,01,2.70
2014,04,28,02,02,2.70
2014,04,28,02,03,2.70
2014,04,28,02,04,2.70
2014,04,28,02,05,2.70
2014,04,28,02,06,2.70
2014,04,28,02,07,2.70
2014,04,28,02,08,2.70
2014,04,28,02,09,2.70
2014,04,28,02,10,2.70
2014,04,28,02,11,2.70
2014,04,28,02,12,2.70
2014,04,28,02,13,2.70
2014,04,28,02,14,2.70
2014,04,28,02,15,2.70
2014,04,28,02,16,2.70
2014,04,28,02,17,2.70
2014,04,28,02,18,2.70
2014,04,28,02,19,2.70
2014,04,28,02,20,2.70
2014,04,28,02,21,2.70
2014,04,28,02,22,2.70
2014,04,28,02,23,2.70
2014,04,28,02,24,2.60
2014,04,28,02,25,2.60
2014,04,28,02,26,2.60
2014,04,28,02,27,2.60
2014,04,28,02,28,2.60
2014,04,28,02,29,2.60
2014,04,28,02,30,2.60
2014,04,28,02,31,2.60
2014,04,28,02,32,2.60
2014,04,28,02,33,2.60
2014,04,28,02,34,2.60
2014,04,28,02,35,2.60
2014,04,28,02,36,2.60
2014,04,28,02,37,2.60
2014,04,28,02,38,2.60
2014,04,28,02,39,2.60
2014,04,28,02,40,2.60
2014,04,28,02,41,2.50
2014,04,28,02,42,2.50
2014,04,28,02,43,2.50
2014,04,28,02,44,2.40
2014,04,28,02,45,2.40
2014,04,28,02,46,2.40
2014,04,28,02,47,2.40
2014,04,28,02,48,2.40
2014,04,28,02,49,2.40
2014,04,28,02,50,2.40
2014,04,28,02,51,2.40
2014,04,28,02,52,2.50
2014,04,28,02,53,2.50
2014,04,28,02,54,2.50
2014,04,28,02,55,2.50
2014,04,28,02,56,2.50
2014,04,28,02,57,2.50
2014,04,28,02,58,2.50
2014,04,28,02,59,2.50
2014,04,28,03,00,2.50
2014,04,28,03,01,2.50
2014,04,28,03,02,2.50
2014,04,28,03,03,2.50
2014,04,28,03,04,2.50
2014,04,28,03,05,2.50
2014,04,28,03,06,2.50
2014,04,28,03,07,2.50
2014,04,28,03,08,2.50
2014,04,28,03,09,2.50
2014,04,28,03,10,2.50
2014,04,28,03,11,2.50
2014,04,28,03,12,2.50
2014,04,28,03,13,2.50
2014,04,28,03,14,2.50
2014,04,28,03,15,2.50
2014,04,28,03,16,2.50
2014,04,28,03,17,2.50
2014,04,28,03,18,2.50
2014,04,28,03,19,2.50
2014,04,28,03,20,2.50
2014,04,28,03,21,2.50
2014,04,28,03,22,2.50
2014,04,28,03,23,2.50
2014,04,28,03,24,2.50
2014,04,28,03,25,2.50
2014,04,28,03,26,2.40
2014,04,28,03,27,2.40
2014,04,28,03,28,2.40
2014,04,28,03,29,2.40
2014,04,28,03,30,2.40
2014,04,28,03,31,2.40
2014,04,28,03,32,2.40
2014,04,28,03,33,2.40
2014,04,28,03,34,2.40
2014,04,28,03,35,2.40
2014,04,28,03,36,2.30
2014,04,28,03,37,2.30
2014,04,28,03,38,2.30
2014,04,28,03,39,2.30
2014,04,28,03,40,2.20
2014,04,28,03,41,2.20
2014,04,28,03,42,2.20
2014,04,28,03,43,2.20
2014,04,28,03,44,2.20
2014,04,28,03,45,2.20
2014,04,28,03,46,2.20
2014,04,28,03,47,2.20
2014,04,28,03,48,2.20
2014,04,28,03,49,2.10
2014,04,28,03,50,2.10
2014,04,28,03,51,2.10
2014,04,28,03,52,2.10
2014,04,28,03,53,2.10
2014,04,28,03,54,2.10
2014,04,28,03,55,2.10
2014,04,28,03,56,2.10
2014,04,28,03,57,2.10
2014,04,28,03,58,2.10
2014,04,28,03,59,2.10
2014,04,28,04,00,2.10
2014,04,28,04,01,2.10
2014,04,28,04,02,2.00
2014,04,28,04,03,2.00
2014,04,28,04,04,2.00
2014,04,28,04,05,1.90
2014,04,28,04,06,1.90
2014,04,28,04,07,1.90
2014,04,28,04,08,1.90
2014,04,28,04,09,1.90
2014,04,28,04,10,1.90
2014,04,28,04,11,1.90
2014,04,28,04,12,1.90
2014,04,28,04,13,1.80
2014,04,28,04,14,1.80
2014,04,28,04,15,1.80
2014,04,28,04,16,1.80
2014,04,28,04,17,1.80
2014,04,28,04,18,1.80
2014,04,28,04,19,1.80
2014,04,28,04,20,1.70
2014,04,28,04,21,1.70
2014,04,28,04,22,1.70
2014,04,28,04,23,1.70
2014,04,28,04,24,1.70
2014,04,28,04,25,1.70
2014,04,28,04,26,1.70
2014,04,28,04,27,1.70
2014,04,28,04,28,1.70
2014,04,28,04,29,1.70
2014,04,28,04,30,1.70
2014,04,28,04,31,1.70
2014,04,28,04,32,1.70
2014,04,28,04,33,1.70
2014,04,28,04,34,1.70
2014,04,28,04,35,1.70
2014,04,28,04,36,1.70
2014,04,28,04,37,1.70
2014,04,28,04,38,1.70
2014,04,28,04,39,1.70
2014,04,28,04,40,1.70
2014,04,28,04,41,1.70
2014,04,28,04,42,1.70
2014,04,28,04,43,1.70
2014,04,28,04,44,1.60
2014,04,28,04,45,1.60
2014,04,28,04,46,1.60
2014,04,28,04,47,1.60
2014,04,28,04,48,1.60
2014,04,28,04,49,1.50
2014,04,28,04,50,1.50
2014,04,28,04,51,1.50
2014,04,28,04,52,1.40
2014,04,28,04,53,1.40
2014,04,28,04,54,1.40
2014,04,28,04,55,1.40
2014,04,28,04,56,1.30
2014,04,28,04,57,1.30
2014,04,28,04,58,1.30
2014,04,28,04,59,1.30
2014,04,28,05,00,1.30
2014,04,28,05,01,1.30
2014,04,28,05,02,1.30
2014,04,28,05,03,1.30
2014,04,28,05,04,1.30
2014,04,28,05,05,1.30
2014,04,28,05,06,1.30
2014,04,28,05,07,1.20
2014,04,28,05,08,1.20
2014,04,28,05,09,1.20
2014,04,28,05,10,1.20
2014,04,28,05,11,1.20
2014,04,28,05,12,1.20
2014,04,28,05,13,1.20
2014,04,28,05,14,1.20
2014,04,28,05,15,1.20
2014,04,28,05,16,1.20
2014,04,28,05,17,1.20
2014,04,28,05,18,1.20
2014,04,28,05,19,1.20
2014,04,28,05,20,1.20
2014,04,28,05,21,1.20
2014,04,28,05,22,1.20
2014,04,28,05,23,1.20
2014,04,28,05,24,1.20
2014,04,28,05,25,1.20
2014,04,28,05,26,1.20
2014,04,28,05,27,1.20
2014,04,28,05,28,1.20
2014,04,28,05,29,1.20
2014,04,28,05,30,1.20
2014,04,28,05,31,1.10
2014,04,28,05,32,1.10
2014,04,28,05,33,1.10
2014,04,28,05,34,1.10
2014,04,28,05,35,1.10
2014,04,28,05,36,1.10
2014,04,28,05,37,1.00
2014,04,28,05,38,1.00
2014,04,28,05,39,1.00
2014,04,28,05,40,1.00
2014,04,28,05,41,1.00
2014,04,28,05,42,1.00
2014,04,28,05,43,0.90
2014,04,28,05,44,0.90
2014,04,28,05,45,0.90
2014,04,28,05,46,0.90
2014,04,28,05,47,0.90
2014,04,28,05,48,0.90
2014,04,28,05,49,0.90
2014,04,28,05,50,0.90
2014,04,28,05,51,0.90
2014,04,28,05,52,0.90
2014,04,28,05,53,0.80
2014,04,28,05,54,0.80
2014,04,28,05,55,0.80
2014,04,28,05,56,0.80
2014,04,28,05,57,0.80
2014,04,28,05,58,0.80
2014,04,28,05,59,0.80
2014,04,28,06,00,0.90
2014,04,28,06,01,0.90
2014,04,28,06,02,0.90
2014,04,28,06,03,0.90
2014,04,28,06,04,0.90
2014,04,28,06,05,0.90
2014,04,28,06,06,0.90
2014,04,28,06,07,0.90
2014,04,28,06,08,0.90
2014,04,28,06,09,0.90
2014,04,28,06,10,0.90
2014,04,28,06,11,0.90
2014,04,28,06,12,0.90
2014,04,28,06,13,0.90
2014,04,28,06,14,0.90
2014,04,28,06,15,0.90
2014,04,28,06,16,0.90
2014,04,28,06,17,0.90
2014,04,28,06,18,0.90
2014,04,28,06,19,0.90
2014,04,28,06,20,0.90
2014,04,28,06,21,0.90
2014,04,28,06,22,0.90
2014,04,28,06,23,0.90
2014,04,28,06,24,0.90
2014,04,28,06,25,0.90
2014,04,28,06,26,0.90
2014,04,28,06,27,0.90
2014,04,28,06,28,0.90
2014,04,28,06,29,0.90
2014,04,28,06,30,1.00
2014,04,28,06,31,1.00
2014,04,28,06,32,1.00
2014,04,28,06,33,1.00
2014,04,28,06,34,1.10
2014,04,28,06,35,1.10
2014,04,28,06,36,1.10
2014,04,28,06,37,1.20
2014,04,28,06,38,1.20
2014,04,28,06,39,1.30
2014,04,28,06,40,1.30
2014,04,28,06,41,1.30
2014,04,28,06,42,1.40
2014,04,28,06,43,1.40
2014,04,28,06,44,1.40
2014,04,28,06,45,1.50
2014,04,28,06,46,1.50
2014,04,28,06,47,1.60
2014,04,28,06,48,1.60
2014,04,28,06,49,1.60
2014,04,28,06,50,1.70
2014,04,28,06,51,1.70
2014,04,28,06,52,1.70
2014,04,28,06,53,1.70
2014,04,28,06,54,1.80
2014,04,28,06,55,1.80
2014,04,28,06,56,1.90
2014,04,28,06,57,1.90
2014,04,28,06,58,2.00
2014,04,28,06,59,2.10
2014,04,28,07,00,2.10
2014,04,28,07,01,2.10
2014,04,28,07,02,2.10
2014,04,28,07,03,2.20
2014,04,28,07,04,2.20
2014,04,28,07,05,2.20
2014,04,28,07,06,2.20
2014,04,28,07,07,2.20
2014,04,28,07,08,2.30
2014,04,28,07,09,2.30
2014,04,28,07,10,2.30
2014,04,28,07,11,2.30
2014,04,28,07,12,2.40
2014,04,28,07,13,2.40
2014,04,28,07,14,2.50
2014,04,28,07,15,2.50
2014,04,28,07,16,2.60
2014,04,28,07,17,2.60
2014,04,28,07,18,2.70
2014,04,28,07,19,2.70
2014,04,28,07,20,2.80
2014,04,28,07,21,2.80
2014,04,28,07,22,2.90
2014,04,28,07,23,2.90
2014,04,28,07,24,3.00
2014,04,28,07,25,3.10
2014,04,28,07,26,3.20
2014,04,28,07,27,3.20
2014,04,28,07,28,3.30
2014,04,28,07,29,3.40
2014,04,28,07,30,3.50
2014,04,28,07,31,3.60
2014,04,28,07,32,3.70
2014,04,28,07,33,3.70
2014,04,28,07,34,3.80
2014,04,28,07,35,3.80
2014,04,28,07,36,3.90
2014,04,28,07,37,4.00
2014,04,28,07,38,4.10
2014,04,28,07,39,4.20
2014,04,28,07,40,4.20
2014,04,28,07,41,4.30
2014,04,28,07,42,4.30
2014,04,28,07,43,4.50
2014,04,28,07,44,4.60
2014,04,28,07,45,4.70
2014,04,28,07,46,4.80
2014,04,28,07,47,4.90
2014,04,28,07,48,5.00
2014,04,28,07,49,5.10
2014,04,28,07,50,5.30
2014,04,28,07,51,5.40
2014,04,28,07,52,5.50
2014,04,28,07,53,5.60
2014,04,28,07,54,5.70
2014,04,28,07,55,5.80
2014,04,28,07,56,5.90
2014,04,28,07,57,6.00
2014,04,28,07,58,6.10
2014,04,28,07,59,6.20
2014,04,28,08,00,6.20
2014,04,28,08,01,6.30
2014,04,28,08,02,6.50
2014,04,28,08,03,6.60
2014,04,28,08,04,6.70
2014,04,28,08,05,6.80
2014,04,28,08,06,6.90
2014,04,28,08,07,7.00
2014,04,28,08,08,7.00
2014,04,28,08,09,7.10
2014,04,28,08,10,7.20
2014,04,28,08,11,7.30
2014,04,28,08,12,7.30
2014,04,28,08,13,7.40
2014,04,28,08,14,7.40
2014,04,28,08,15,7.40
2014,04,28,08,16,7.50
2014,04,28,08,17,7.60
2014,04,28,08,18,7.60
2014,04,28,08,19,7.70
2014,04,28,08,20,7.80
2014,04,28,08,21,7.80
2014,04,28,08,22,7.90
2014,04,28,08,23,8.00
2014,04,28,08,24,8.10
2014,04,28,08,25,8.10
2014,04,28,08,26,8.10
2014,04,28,08,27,8.20
2014,04,28,08,28,8.30
2014,04,28,08,29,8.40
2014,04,28,08,30,8.40
2014,04,28,08,31,8.50
2014,04,28,08,32,8.50
2014,04,28,08,33,8.60
2014,04,28,08,34,8.60
2014,04,28,08,35,8.60
2014,04,28,08,36,8.60
2014,04,28,08,37,8.70
2014,04,28,08,38,8.70
2014,04,28,08,39,8.80
2014,04,28,08,40,8.80
2014,04,28,08,41,8.90
2014,04,28,08,42,8.90
2014,04,28,08,43,9.00
2014,04,28,08,44,9.00
2014,04,28,08,45,9.10
2014,04,28,08,46,9.10
2014,04,28,08,47,9.20
2014,04,28,08,48,9.20
2014,04,28,08,49,9.20
2014,04,28,08,50,9.20
2014,04,28,08,51,9.10
2014,04,28,08,52,8.90
2014,04,28,08,53,8.80
2014,04,28,08,54,8.70
2014,04,28,08,55,8.70
2014,04,28,08,56,8.60
2014,04,28,08,57,8.60
2014,04,28,08,58,8.60
2014,04,28,08,59,8.70
2014,04,28,09,00,8.70
2014,04,28,09,01,8.70
2014,04,28,09,02,8.70
2014,04,28,09,03,8.60
2014,04,28,09,04,8.60
2014,04,28,09,05,8.60
2014,04,28,09,06,8.60
2014,04,28,09,07,8.60
2014,04,28,09,08,8.60
2014,04,28,09,09,8.60
2014,04,28,09,10,8.60
2014,04,28,09,11,8.60
2014,04,28,09,12,8.50
2014,04,28,09,13,8.50
2014,04,28,09,14,8.40
2014,04,28,09,15,8.40
2014,04,28,09,16,8.40
2014,04,28,09,17,8.40
2014,04,28,09,18,8.40
2014,04,28,09,19,8.40
2014,04,28,09,20,8.30
2014,04,28,09,21,8.30
2014,04,28,09,22,8.30
2014,04,28,09,23,8.20
2014,04,28,09,24,8.20
2014,04,28,09,25,8.20
2014,04,28,09,26,8.20
2014,04,28,09,27,8.20
2014,04,28,09,28,8.20
2014,04,28,09,29,8.20
2014,04,28,09,30,8.20
2014,04,28,09,31,8.20
2014,04,28,09,32,8.10
2014,04,28,09,33,8.10
2014,04,28,09,34,8.00
2014,04,28,09,35,7.90
2014,04,28,09,36,7.90
2014,04,28,09,37,7.90
2014,04,28,09,38,7.80
2014,04,28,09,39,7.80
2014,04,28,09,40,7.80
2014,04,28,09,41,7.80
2014,04,28,09,42,7.80
2014,04,28,09,43,7.80
2014,04,28,09,44,7.80
2014,04,28,09,45,7.90
2014,04,28,09,46,7.90
2014,04,28,09,47,7.90
2014,04,28,09,48,7.90
2014,04,28,09,49,7.90
2014,04,28,09,50,7.90
2014,04,28,09,51,7.90
2014,04,28,09,52,7.90
2014,04,28,09,53,7.90
2014,04,28,09,54,7.90
2014,04,28,09,55,7.90
2014,04,28,09,56,7.90
2014,04,28,09,57,8.00
2014,04,28,09,58,8.00
2014,04,28,09,59,8.10
2014,04,28,10,00,8.20
2014,04,28,10,01,8.30
2014,04,28,10,02,8.50
2014,04,28,10,03,8.50
2014,04,28,10,04,8.50
2014,04,28,10,05,8.50
2014,04,28,10,06,8.40
2014,04,28,10,07,8.40
2014,04,28,10,08,8.40
2014,04,28,10,09,8.40
2014,04,28,10,10,8.40
2014,04,28,10,11,8.40
2014,04,28,10,12,8.40
2014,04,28,10,13,8.40
2014,04,28,10,14,8.40
2014,04,28,10,15,8.40
2014,04,28,10,16,8.40
2014,04,28,10,17,8.50
2014,04,28,10,18,8.50
2014,04,28,10,19,8.50
2014,04,28,10,20,8.50
2014,04,28,10,21,8.60
2014,04,28,10,22,8.60
2014,04,28,10,23,8.70
2014,04,28,10,24,8.70
2014,04,28,10,25,8.80
2014,04,28,10,26,8.80
2014,04,28,10,27,8.80
2014,04,28,10,28,8.90
2014,04,28,10,29,9.00
2014,04,28,10,30,9.00
2014,04,28,10,31,9.10
2014,04,28,10,32,9.10
2014,04,28,10,33,9.20
2014,04,28,10,34,9.30
2014,04,28,10,35,9.30
2014,04,28,10,36,9.30
2014,04,28,10,37,9.30
2014,04,28,10,38,9.30
2014,04,28,10,39,9.20
2014,04,28,10,40,9.20
2014,04,28,10,41,9.10
2014,04,28,10,42,9.10
2014,04,28,10,43,9.10
2014,04,28,10,44,9.10
2014,04,28,10,45,9.20
2014,04,28,10,46,9.20
2014,04,28,10,47,9.10
2014,04,28,10,48,9.10
2014,04,28,10,49,9.10
2014,04,28,10,50,9.20
2014,04,28,10,51,9.30
2014,04,28,10,52,9.40
2014,04,28,10,53,9.50
2014,04,28,10,54,9.60
2014,04,28,10,55,9.60
2014,04,28,10,56,9.70
2014,04,28,10,57,9.80
2014,04,28,10,58,9.90
2014,04,28,10,59,10.00
2014,04,28,11,00,10.10
2014,04,28,11,01,10.10
2014,04,28,11,02,10.20
2014,04,28,11,03,10.10
2014,04,28,11,04,10.10
2014,04,28,11,05,10.20
2014,04,28,11,06,10.20
2014,04,28,11,07,10.20
2014,04,28,11,08,10.30
2014,04,28,11,09,10.30
2014,04,28,11,10,10.40
2014,04,28,11,11,10.40
2014,04,28,11,12,10.50
2014,04,28,11,13,10.50
2014,04,28,11,14,10.60
2014,04,28,11,15,10.70
2014,04,28,11,16,10.70
2014,04,28,11,17,10.70
2014,04,28,11,18,10.70
2014,04,28,11,19,10.70
2014,04,28,11,20,10.70
2014,04,28,11,21,10.70
2014,04,28,11,22,10.70
2014,04,28,11,23,10.70
2014,04,28,11,24,10.70
2014,04,28,11,25,10.70
2014,04,28,11,26,10.80
2014,04,28,11,27,10.90
2014,04,28,11,28,11.00
2014,04,28,11,29,11.00
2014,04,28,11,30,11.00
2014,04,28,11,31,10.90
2014,04,28,11,32,10.90
2014,04,28,11,33,11.00
2014,04,28,11,34,11.00
2014,04,28,11,35,10.90
2014,04,28,11,36,10.80
2014,04,28,11,37,10.70
2014,04,28,11,38,10.60
2014,04,28,11,39,10.50
2014,04,28,11,40,10.40
2014,04,28,11,41,10.40
2014,04,28,11,42,10.50
2014,04,28,11,43,10.50
2014,04,28,11,44,10.60
2014,04,28,11,45,10.60
2014,04,28,11,46,10.60
2014,04,28,11,47,10.50
2014,04,28,11,48,10.40
2014,04,28,11,49,10.40
2014,04,28,11,50,10.40
2014,04,28,11,51,10.40
2014,04,28,11,52,10.30
2014,04,28,11,53,10.30
2014,04,28,11,54,10.30
2014,04,28,11,55,10.30
2014,04,28,11,56,10.20
2014,04,28,11,57,10.20
2014,04,28,11,58,10.20
2014,04,28,11,59,10.30
2014,04,28,12,00,10.40
2014,04,28,12,01,10.40
2014,04,28,12,02,10.40
2014,04,28,12,03,10.40
2014,04,28,12,04,10.50
2014,04,28,12,05,10.60
2014,04,28,12,06,10.70
2014,04,28,12,07,10.70
2014,04,28,12,08,10.80
2014,04,28,12,09,10.80
2014,04,28,12,10,10.80
2014,04,28,12,11,10.80
2014,04,28,12,12,10.80
2014,04,28,12,13,10.90
2014,04,28,12,14,10.90
2014,04,28,12,15,10.90
2014,04,28,12,16,10.90
2014,04,28,12,17,10.90
2014,04,28,12,18,10.80
2014,04,28,12,19,10.80
2014,04,28,12,20,10.60
2014,04,28,12,21,10.40
2014,04,28,12,22,10.40
2014,04,28,12,23,10.30
2014,04,28,12,24,10.40
2014,04,28,12,25,10.50
2014,04,28,12,26,10.60
2014,04,28,12,27,10.60
2014,04,28,12,28,10.60
2014,04,28,12,29,10.60
2014,04,28,12,30,10.60
2014,04,28,12,31,10.70
2014,04,28,12,32,10.70
2014,04,28,12,33,10.60
2014,04,28,12,34,10.70
2014,04,28,12,35,10.70
2014,04,28,12,36,10.70
2014,04,28,12,37,10.70
2014,04,28,12,38,10.80
2014,04,28,12,39,10.80
2014,04,28,12,40,10.90
2014,04,28,12,41,11.00
2014,04,28,12,42,11.20
2014,04,28,12,43,11.30
2014,04,28,12,44,11.30
2014,04,28,12,45,11.40
2014,04,28,12,46,11.40
2014,04,28,12,47,11.40
2014,04,28,12,48,11.30
2014,04,28,12,49,11.30
2014,04,28,12,50,11.20
2014,04,28,12,51,11.10
2014,04,28,12,52,11.00
2014,04,28,12,53,10.80
2014,04,28,12,54,10.70
2014,04,28,12,55,10.70
2014,04,28,12,56,10.60
2014,04,28,12,57,10.70
2014,04,28,12,58,10.60
2014,04,28,12,59,10.60
2014,04,28,13,00,10.50
2014,04,28,13,01,10.40
2014,04,28,13,02,10.30
2014,04,28,13,03,10.30
2014,04,28,13,04,10.40
2014,04,28,13,05,10.40
2014,04,28,13,06,10.50
2014,04,28,13,07,10.60
2014,04,28,13,08,10.80
2014,04,28,13,09,10.80
2014,04,28,13,10,10.90
2014,04,28,13,11,11.00
2014,04,28,13,12,11.10
2014,04,28,13,13,11.10
2014,04,28,13,14,11.20
2014,04,28,13,15,11.20
2014,04,28,13,16,11.20
2014,04,28,13,17,11.20
2014,04,28,13,18,11.30
2014,04,28,13,19,11.30
2014,04,28,13,20,11.30
2014,04,28,13,21,11.20
2014,04,28,13,22,11.20
2014,04,28,13,23,11.20
2014,04,28,13,24,11.10
2014,04,28,13,25,11.00
2014,04,28,13,26,10.90
2014,04,28,13,27,10.80
2014,04,28,13,28,10.90
2014,04,28,13,29,10.90
2014,04,28,13,30,11.00
2014,04,28,13,31,11.10
2014,04,28,13,32,11.10
2014,04,28,13,33,11.10
2014,04,28,13,34,11.10
2014,04,28,13,35,11.10
2014,04,28,13,36,11.10
2014,04,28,13,37,11.10
2014,04,28,13,38,11.10
2014,04,28,13,39,11.10
2014,04,28,13,40,11.20
2014,04,28,13,41,11.20
2014,04,28,13,42,11.10
2014,04,28,13,43,11.10
2014,04,28,13,44,11.00
2014,04,28,13,45,11.00
2014,04,28,13,46,11.00
2014,04,28,13,47,11.00
2014,04,28,13,48,11.00
2014,04,28,13,49,11.10
2014,04,28,13,50,11.10
2014,04,28,13,51,11.20
2014,04,28,13,52,11.30
2014,04,28,13,53,11.30
2014,04,28,13,54,11.30
2014,04,28,13,55,11.30
2014,04,28,13,56,11.20
2014,04,28,13,57,11.20
2014,04,28,13,58,11.20
2014,04,28,13,59,11.20
2014,04,28,14,00,11.30
2014,04,28,14,01,11.40
2014,04,28,14,02,11.40
2014,04,28,14,03,11.40
2014,04,28,14,04,11.60
2014,04,28,14,05,11.80
2014,04,28,14,06,11.90
2014,04,28,14,07,12.00
2014,04,28,14,08,12.00
2014,04,28,14,09,12.00
2014,04,28,14,10,12.00
2014,04,28,14,11,11.90
2014,04,28,14,12,11.90
2014,04,28,14,13,12.00
2014,04,28,14,14,12.10
2014,04,28,14,15,12.10
2014,04,28,14,16,12.00
2014,04,28,14,17,11.90
2014,04,28,14,18,11.80
2014,04,28,14,19,11.60
2014,04,28,14,20,11.50
2014,04,28,14,21,11.40
2014,04,28,14,22,11.40
2014,04,28,14,23,11.40
2014,04,28,14,24,11.50
2014,04,28,14,25,11.50
2014,04,28,14,26,11.50
2014,04,28,14,27,11.60
2014,04,28,14,28,11.70
2014,04,28,14,29,11.90
2014,04,28,14,30,12.00
2014,04,28,14,31,12.10
2014,04,28,14,32,12.10
2014,04,28,14,33,12.20
2014,04,28,14,34,12.30
2014,04,28,14,35,12.30
2014,04,28,14,36,12.40
2014,04,28,14,37,12.40
2014,04,28,14,38,12.40
2014,04,28,14,39,12.40
2014,04,28,14,40,12.50
2014,04,28,14,41,12.50
2014,04,28,14,42,12.50
2014,04,28,14,43,12.60
2014,04,28,14,44,12.70
2014,04,28,14,45,12.70
2014,04,28,14,46,12.80
2014,04,28,14,47,12.80
2014,04,28,14,48,12.80
2014,04,28,14,49,12.70
2014,04,28,14,50,12.60
2014,04,28,14,51,12.60
2014,04,28,14,52,12.50
2014,04,28,14,53,12.50
2014,04,28,14,54,12.50
2014,04,28,14,55,12.40
2014,04,28,14,56,12.40
2014,04,28,14,57,12.30
2014,04,28,14,58,12.30
2014,04,28,14,59,12.30
2014,04,28,15,00,12.30
2014,04,28,15,01,12.30
2014,04,28,15,02,12.30
2014,04,28,15,03,12.30
2014,04,28,15,04,12.30
2014,04,28,15,05,12.30
2014,04,28,15,06,12.40
2014,04,28,15,07,12.40
2014,04,28,15,08,12.40
2014,04,28,15,09,12.40
2014,04,28,15,10,12.40
2014,04,28,15,11,12.40
2014,04,28,15,12,12.40
2014,04,28,15,13,12.40
2014,04,28,15,14,12.40
2014,04,28,15,15,12.40
2014,04,28,15,16,12.40
2014,04,28,15,17,12.40
2014,04,28,15,18,12.40
2014,04,28,15,19,12.40
2014,04,28,15,20,12.40
2014,04,28,15,21,12.40
2014,04,28,15,22,12.40
2014,04,28,15,23,12.50
2014,04,28,15,24,12.50
2014,04,28,15,25,12.50
2014,04,28,15,26,12.50
2014,04,28,15,27,12.50
2014,04,28,15,28,12.60
2014,04,28,15,29,12.60
2014,04,28,15,30,12.60
2014,04,28,15,31,12.70
2014,04,28,15,32,12.70
2014,04,28,15,33,12.80
2014,04,28,15,34,12.80
2014,04,28,15,35,12.80
2014,04,28,15,36,12.90
2014,04,28,15,37,12.90
2014,04,28,15,38,13.00
2014,04,28,15,39,13.00
2014,04,28,15,40,13.10
2014,04,28,15,41,13.10
2014,04,28,15,42,13.20
2014,04,28,15,43,13.20
2014,04,28,15,44,13.20
2014,04,28,15,45,13.30
2014,04,28,15,46,13.30
2014,04,28,15,47,13.30
2014,04,28,15,48,13.30
2014,04,28,15,49,13.40
2014,04,28,15,50,13.40
2014,04,28,15,51,13.40
2014,04,28,15,52,13.50
2014,04,28,15,53,13.60
2014,04,28,15,54,13.60
2014,04,28,15,55,13.60
2014,04,28,15,56,13.60
2014,04,28,15,57,13.70
2014,04,28,15,58,13.70
2014,04,28,15,59,13.70
2014,04,28,16,00,13.80
2014,04,28,16,01,13.80
2014,04,28,16,02,13.90
2014,04,28,16,03,13.90
2014,04,28,16,04,13.80
2014,04,28,16,05,13.80
2014,04,28,16,06,13.80
2014,04,28,16,07,13.80
2014,04,28,16,08,13.80
2014,04,28,16,09,13.80
2014,04,28,16,10,13.80
2014,04,28,16,11,13.80
2014,04,28,16,12,13.80
2014,04,28,16,13,13.70
2014,04,28,16,14,13.70
2014,04,28,16,15,13.70
2014,04,28,16,16,13.70
2014,04,28,16,17,13.70
2014,04,28,16,18,13.70
2014,04,28,16,19,13.70
2014,04,28,16,20,13.70
2014,04,28,16,21,13.70
2014,04,28,16,22,13.70
2014,04,28,16,23,13.70
2014,04,28,16,24,13.70
2014,04,28,16,25,13.70
2014,04,28,16,26,13.80
2014,04,28,16,27,13.80
2014,04,28,16,28,13.90
2014,04,28,16,29,14.00
2014,04,28,16,30,14.00
2014,04,28,16,31,14.10
2014,04,28,16,32,14.10
2014,04,28,16,33,14.20
2014,04,28,16,34,14.20
2014,04,28,16,35,14.30
2014,04,28,16,36,14.20
2014,04,28,16,37,14.10
2014,04,28,16,38,14.10
2014,04,28,16,39,14.00
2014,04,28,16,40,13.90
2014,04,28,16,41,14.00
2014,04,28,16,42,14.00
2014,04,28,16,43,14.00
2014,04,28,16,44,14.00
2014,04,28,16,45,14.00
2014,04,28,16,46,14.00
2014,04,28,16,47,14.00
2014,04,28,16,48,13.90
2014,04,28,16,49,13.80
2014,04,28,16,50,13.80
2014,04,28,16,51,13.80
2014,04,28,16,52,13.80
2014,04,28,16,53,13.70
2014,04,28,16,54,13.80
2014,04,28,16,55,13.80
2014,04,28,16,56,13.80
2014,04,28,16,57,13.80
2014,04,28,16,58,13.80
2014,04,28,16,59,13.80
2014,04,28,17,00,13.80
2014,04,28,17,01,13.80
2014,04,28,17,02,13.80
2014,04,28,17,03,13.80
2014,04,28,17,04,13.80
2014,04,28,17,05,13.90
2014,04,28,17,06,13.80
2014,04,28,17,07,13.80
2014,04,28,17,08,13.80
2014,04,28,17,09,13.80
2014,04,28,17,10,13.80
2014,04,28,17,11,13.90
2014,04,28,17,12,13.90
2014,04,28,17,13,13.90
2014,04,28,17,14,13.90
2014,04,28,17,15,13.90
2014,04,28,17,16,13.90
2014,04,28,17,17,13.90
2014,04,28,17,18,13.90
2014,04,28,17,19,13.90
2014,04,28,17,20,13.90
2014,04,28,17,21,13.90
2014,04,28,17,22,13.80
2014,04,28,17,23,13.80
2014,04,28,17,24,13.80
2014,04,28,17,25,13.80
2014,04,28,17,26,13.80
2014,04,28,17,27,13.80
2014,04,28,17,28,13.70
2014,04,28,17,29,13.70
2014,04,28,17,30,13.70
2014,04,28,17,31,13.70
2014,04,28,17,32,13.70
2014,04,28,17,33,13.70
2014,04,28,17,34,13.70
2014,04,28,17,35,13.70
2014,04,28,17,36,13.70
2014,04,28,17,37,13.60
2014,04,28,17,38,13.50
2014,04,28,17,39,13.40
2014,04,28,17,40,13.40
2014,04,28,17,41,13.30
2014,04,28,17,42,13.30
2014,04,28,17,43,13.20
2014,04,28,17,44,13.20
2014,04,28,17,45,13.10
2014,04,28,17,46,13.10
2014,04,28,17,47,13.10
2014,04,28,17,48,13.00